Back to catalog

SL-12 R/B

AUX MOTOR

AliveHEO
NORAD 21226·ROCKET BODY·🇷🇺 Russia

Launched Apr 4, 1991 from Baikonur Cosmodrome

Loading…

Next Passes (next 24 hours)

TLE

FreshSource: Space-Track

Epoch: Sep 13, 2026, 14:36 UTC

1 21226U 91025G   26256.60840678  .00018121  00000-0  13185-2 0  9993
2 21226  64.5303 339.4025 4405308  26.8348 350.4623  6.69884236669799

Track SL-12 R/B in real time with AllMySat

Download on the App Store